Location: Unspecified
(0.0000°N, 0.0000°E)
Time: 14:07:33
(UTC+01:00)

Tiangong 1 - Visible Passes

Search period start: 29 December 2014 00:00
Search period end: 08 January 2015 00:00
Orbit: 362 x 380 km, 42.8° (Epoch: 29 December)

Date Brightness Start Highest point End Pass type
(mag) Time Alt. Az. Time Alt. Az. Time Alt. Az.
29 Dec 3.6 20:45:50 10° NW 20:46:39 17° WNW 20:46:39 17° WNW visible
30 Dec 1.7 19:42:12 10° NNW 19:45:02 34° NE 19:47:54 10° ESE visible
31 Dec 3.3 20:14:43 10° WNW 20:17:23 26° SW 20:20:03 10° SSE visible
02 Jan 4.4 19:43:57 10° WSW 19:45:33 13° SW 19:47:10 10° SSW visible
03 Jan 4.3 05:35:44 10° SSE 05:37:17 13° SE 05:38:49 10° ESE visible
04 Jan 0.8 06:06:17 10° SW 06:09:21 83° NW 06:12:22 10° NE visible
05 Jan 4.1 05:06:57 14° E 05:06:57 14° E 05:07:39 10° ENE visible
